Regional Weather Roundup
Issued by NWS Sterling, VA

Home | Current Version | Previous Version | Text Only | Print | Product List | Glossary Off
Versions: 1 2 3 4 5 6 7 8 9 10 11 12 13 14 15 16 17 18 19 20 21 22 23 24 25 26 27 28 29 30 31 32 33 34 35 36 37 38 39 40 41 42 43 44 45 46 47 48 49 50

000
ASUS41 KLWX 291310
RWRLWX

REGIONAL WEATHER ROUNDUP
NATIONAL WEATHER SERVICE BALTIMORE MD/WASHINGTON DC
900 AM EDT MON JUN 29 2015

Note: "FAIR" indicates few or no clouds below 12,000 feet
with no significant weather and/or obstructions to visibility.
 TC=TEMPERATURE CELSIUS

 * =Non NWS site. Station does not report precipitation (e.g. rain,
    snow, etc.), thunder, or fog.

DCZ001-MDZ009-015-VAZ040>042-051-053>054-291400-
WASHINGTON METRO

CITY           SKY/WX    TMP DP  RH WIND       PRES   REMARKS
WASHINGTON NAT MOSUNNY   75  54  47 SW9       29.99R
DULLES         MOSUNNY   68  54  60 SW9       29.98
ANDREWS AFB    SUNNY     72  59  64 SW8       29.98R
FT BELVOIR     SUNNY     72  55  55 SW8       29.99R
QUANTICO       MOSUNNY   70  56  61 W5        30.00R
COLLEGE PARK*  SUNNY     72  52  49 SW7       29.97R
LEESBURG*      SUNNY     70  59  68 SW3       30.00R
MANASSAS*      SUNNY     70  55  60 SW5       29.99R
GAITHERSBURG*  SUNNY     68  54  60 W9        30.02R

$$

MDZ006>007-011-014-291400-
BALTIMORE METRO

CITY           SKY/WX    TMP DP  RH WIND       PRES   REMARKS
BWI AIRPORT    MOSUNNY   70  53  54 W8        29.97R
MD SCIENCE CTR   N/A     72  54  53 MISG      30.00R
MARTIN STATE   SUNNY     72  57  60 SW9       29.97R
ANNAPOLIS      SUNNY     72  54  53 VRB5      29.97R
FORT MEADE*    SUNNY     66  57  72 S3        30.00R

$$

MDZ012-015-019>023-291400-
MARYLAND EASTERN SHORE

CITY           SKY/WX    TMP DP  RH WIND       PRES   REMARKS
OCEAN CITY     SUNNY     72  56  57 NW6       29.98R
SALISBURY      SUNNY     72  55  55 W8        29.98R
BAY BRIDGE AP*   N/A     70  52  52 W9        29.97R
CAMBRIDGE*     SUNNY     72  52  49 W8        29.98R
EASTON*        SUNNY     73  57  56 W9        30.01R

$$

MDZ017>025-291400-
SOUTHERN MARYLAND

CITY           SKY/WX    TMP DP  RH WIND       PRES   REMARKS
PATUXENT RIVER MOSUNNY   73  53  49 W9        29.99R
ST INIGOES     SUNNY     74  54  49 W8        29.98R
LEONARDTOWN*   NOT AVBL

$$

MDZ003>005-291400-
NORTH CENTRAL MARYLAND

CITY           SKY/WX    TMP DP  RH WIND       PRES   REMARKS
FREDERICK*     SUNNY     70  59  68 CALM      30.00R
HAGERSTOWN APT SUNNY     66  52  60 SW5       29.98R
WESTMINSTER*   SUNNY     64  55  72 SW9       29.98R

$$

MDZ501>502-291400-
WESTERN MARYLAND

CITY           SKY/WX    TMP DP  RH WIND       PRES   REMARKS
OAKLAND*       SUNNY     57 N/A N/A CALM      30.05R
CUMBERLAND*    SUNNY     63  55  77 S3        30.03R

$$

VAZ025>031-291400-
SHENANDOAH VALLEY

CITY           SKY/WX    TMP DP  RH WIND       PRES   REMARKS
WINCHESTER*    SUNNY     70  54  56 SW9       30.00R
FRONT ROYAL*   FAIR      64  54  68 SW7       30.00R
LURAY*         FAIR      68  57  68 SW7       30.02S
NEW MARKET*    FAIR      64  56  74 SW3       30.01S
STAUNTON*      SUNNY     65  57  75 CALM      30.05S
WAYNESBORO*    FAIR      65  55  69 SW3       30.04R

$$

WVZ021-048>050-054>055-291400-
EASTERN WEST VIRGINIA PANHANDLE

CITY           SKY/WX    TMP DP  RH WIND       PRES   REMARKS
MARTINSBURG    SUNNY     68  55  63 S5        29.99R
PETERSBURG*    SUNNY     63  50  63 NW3       30.02S

$$

VAZ036>039-050-291400-
CENTRAL FOOTHILLS

CITY           SKY/WX    TMP DP  RH WIND       PRES   REMARKS
CHARLOTTESVILL SUNNY     67  56  67 CALM      30.02R
CULPEPER*      SUNNY     69  56  62 W7        30.01S
ORANGE*        SUNNY     72  59  64 CALM      30.02S
GORDONSVILLE*  FAIR      72  61  68 CALM      30.01R
WARRENTON*     FAIR      70  60  69 SW6       30.00R

$$

VAZ055>057-291400-
NORTH AND CENTRAL PIEDMONT

CITY           SKY/WX    TMP DP  RH WIND       PRES   REMARKS
FREDERICKSBRG* SUNNY     73  59  62 SW3       30.00R
STAFFORD*      SUNNY     69  57  65 W3        30.04R

$$

NCZ024-NYZ072-PAZ021-071-VAZ022-071-291400-
OTHER REGIONAL OBSERVATIONS

CITY           SKY/WX    TMP DP  RH WIND       PRES   REMARKS
NEW YORK CITY  SUNNY     67  54  63 W8G17     29.91R
PHILADELPHIA   MOSUNNY   70  53  54 W14       29.94S
PITTSBURGH     PTSUNNY   65  55  70 SW7       29.98R
ROANOKE        PTSUNNY   65  55  70 W3        30.07R
RICHMOND       MOSUNNY   71  58  63 S3        30.02R
RALEIGH        PTSUNNY   74  62  66 NE6       30.01R

$$

ANZ530>537-291400-
MARINE OBSERVATIONS

STATION/POSITION TIME  TEMP    WIND        PRES
                       AIR SEA DIR/SP/G
                 (UTC) (F)     (DEG/KT/KT) (MB)
THOMAS PT LIGHT  NOT AVBL
BALT KEY BRIDGE  1200   66     230/  9/ 10 1013.8F
COVE POINT       1200   70     280/  8/ 10 1015.6R
LEWISETTA        1200   71 77  280/  4/  5 1015.0R
SOLOMONS ISLAND  1200      79                N/A
PINEY POINT      1200          270/  6/  7   N/A

$$




USA.gov is the U.S. government's official web portal to all federal, state and local government web resources and services.